SCP
0 0 0 0 0 0 0 0 0 0 0 0 0 0 0 0 0 0 0 0 0 0 0 0 0 0 0 0 0 0 0 0 0 0 0 0 0 0
0 0 0 0 0 0 0 0 0 0 0 0 0 0 0 0 0 0 0 0 0 0 0 0 0 0 0 0 0 0 0 0 0 0 0 0 0 0
0 0 0 0 0 0 0 0 0 0 0 0 0 0 0 0 0 0 0 0 0 0 0 0 0 0 0 0 0 0 0 0 0 0 0 0 0 0
0 0 0 0 0 0 0 0 0 0 0 0 0 0 0 0 0 0 0 0 0 0 0 0 0 0 0 0 0 0 0 0 0 0 0 0 0 0
0 0 0 0 0 0 0 0 0 0 0 0 0 0 0 0 0 0 0 0 0 0 0 0 0 0 0 0 0 0 0 0 0 0 0 0 0 0
0 0 0 0 0 0 0 0 0 0 0 0 0 0 0 0 0 0 0 0 0 0 0 0 0 0 0 0 0 0 0 0 0 0 0 0 0 0
0 0 0 0 0 0 0 0 0 0 0 0 0 0 0 0 0 0 0 0 0 0 0 0 0 0 0 0 0 0 0 0 0 0 0 0 0 0
0 0 0 0 0 0 0 0 0 0 0 0 0 0 0 0 0 0 0 0 0 0 0 0 0 0 0 0 0 0 0 0 0 0 0 0 0 0
0 0 0 0 0 0 0 0 0 0 0 0 0 0 0 0 0 0 0 0 0 0 0 0 0 0 0 0 0 0 0 0 0 0 0 0 0 0
0 0 0 0 0 0 0 0 0 0 0 0 0 0 0 0 0 0 0 0 0 0 0 0 0 0 0 0 0 0 0 0 0 0 0 0 0 0
0 0 0 0 0 0 0 0 0 0 0 0 0 0 0 0 0 0 0 0 0 0 0 0 0 0 0 0 0 0 0 0 0 0 0 0 0 0
0 0 0 0 0 0 0 0 0 0 0 0 0 0 0 0 0 0 0 0 0 0 0 0 0 0 0 0 0 0 0 0 0 0 0 0 0 0
0 0 0 0 0 0 0 0 0 0 0 0 0 0 0 0 0 0 0 0 0 0 0 0 0 0 0 0 0 0 0 0 0 0 0 0 0 0
0 0 0 0 0 0 0 0 0 0 0 0 0 0 0 0 0 0 0 0 0 0 0 0 0 0 0 0 0 0 0 0 0 0 0 0 0 0
0 0 0 0 0 0 0 0 0 0 0 0 0 0 0 0 0 0 0 0 0 0 0 0 0 0 0 0 0 0 0 0 0 0 0 0 0 0
0 0 0 0 0 0 0 0 0 0 0 0 0 0 0 0 0 0 0 0 0 0 0 0 0 0 0 0 0 0 0 0 0 0 0 0 0 0
0 0 0 0 0 0 0 0 0 0 0 0 0 0 0 0 0 0 0 0 0 0 0 0 0 0 0 0 0 0 0 0 0 0 0 0 0 0
0 0 0 0 0 0 0 0 0 0 0 0 0 0 0 0 0 0 0 0 0 0 0 0 0 0 0 0 0 0 0 0 0 0 0 0 0 0
0 0 0 0 0 0 0 0 0 0 0 0 0 0 0 0 0 0 0 0 0 0 0 0 0 0 0 0 0 0 0 0 0 0 0 0 0 0
0 0 0 0 0 0 0 0 0 0 0 0 0 0 0 0 0 0 0 0 0 0 0 0 0 0 0 0 0 0 0 0 0 0 0 0 0 0
0 0 0 0 0 0 0 0 0 0 0 0 0 0 0 0 0 0 0 0 0 0 0 0 0 0 0 0 0 0 0 0 0 0 0 0 0 0
0 0 0 0 0 0 0 0 0 0 0 0 0 0 0 0 0 0 0 0 0 0 0 0 0 0 0 0 0 0 0 0 0 0 0 0 0 0
0 0 0 0 0 0 0 0 0 0 0 0 0 0 0 0 0 0 0 0 0 0 0 0 0 0 0 0 0 0 0 0 0 0 0 0 0 0
Wind_Speed
6 6 4 3 4 3 3 3 2 1 2 2 2 3 1 1 1 1 1 5 5 4 3 3 4 5 6 7 7 8 8 8 9 9 9 9 9 10
5 6 6 5 4 3 3 3 4 3 2 2 2 2 2 2 0 2 4 5 6 6 5 5 4 4 5 6 7 7 7 7 8 9 9 9 9 9
6 6 5 5 5 5 4 4 4 4 3 2 2 1 0 1 1 3 5 2 2 7 7 6 5 4 4 5 5 5 6 7 8 9 9 10 10 10
6 6 6 5 5 4 4 4 3 2 3 2 2 0 1 1 2 4 3 3 2 7 9 7 6 5 4 4 3 4 4 6 7 8 9 9 10 10
6 6 6 6 6 5 4 4 3 4 2 2 2 1 1 1 3 4 3 2 4 2 7 7 7 6 5 4 3 3 3 4 5 7 8 8 9 9
5 5 6 6 5 5 4 5 5 4 3 2 2 2 2 3 3 3 3 3 3 3 2 1 5 6 5 5 4 3 3 4 4 5 6 7 8 9
4 4 5 5 3 3 4 4 5 4 4 4 3 3 3 3 4 3 4 3 3 2 3 2 1 2 3 5 5 4 3 3 4 5 6 7 7 8
4 3 4 3 1 2 3 4 3 3 4 4 3 4 4 4 3 4 3 4 3 3 3 3 1 1 2 3 4 5 4 4 4 5 6 7 8 8
3 4 4 6 7 6 5 5 5 7 6 2 3 4 4 3 4 5 4 4 4 4 2 3 2 2 1 2 6 5 4 4 3 4 5 6 8 8
3 4 5 6 7 7 7 6 3 1 4 4 3 3 3 3 3 4 5 5 4 3 1 2 2 2 1 2 5 6 5 5 4 4 5 7 8 9
5 6 6 5 7 9 6 6 5 5 3 4 6 7 9 9 5 3 4 4 4 3 2 2 2 2 1 1 3 7 7 6 5 5 5 6 8 9
4 5 7 6 6 8 5 5 5 5 7 7 6 7 7 7 7 5 3 3 3 3 3 2 2 2 2 1 1 3 4 6 7 7 6 6 7 4
3 3 3 4 6 7 6 4 4 6 7 6 4 3 2 2 2 3 3 2 2 2 3 2 2 2 2 2 2 2 3 2 3 4 6 7 5 3
3 3 1 4 6 8 6 7 10 9 4 3 3 3 2 2 2 2 3 3 3 4 4 2 2 2 2 2 3 2 1 2 2 3 3 5 5 4
3 5 6 7 8 6 7 9 8 4 3 3 3 3 3 2 2 2 3 4 4 4 3 3 3 2 2 2 2 2 2 1 1 1 1 2 3 2
4 6 8 9 8 8 7 4 3 2 2 3 3 3 3 3 2 2 2 3 3 3 3 3 3 3 3 3 2 2 2 1 1 1 1 1 2 2
7 5 3 2 2 2 2 2 2 2 3 3 3 3 3 3 3 3 2 2 3 3 3 3 3 2 3 2 1 2 1 1 2 1 1 2 2 2
6 4 3 3 3 3 3 3 3 3 3 4 3 4 4 4 4 3 3 2 3 3 3 3 2 2 3 2 1 2 2 1 2 2 2 1 2 2
4 3 2 3 3 3 3 3 3 3 3 3 3 4 4 4 4 4 4 3 3 3 4 3 2 2 3 3 2 3 2 2 2 3 3 2 2 2
1 2 3 3 3 3 3 3 3 3 3 4 3 4 4 4 4 4 4 4 4 4 4 2 2 2 2 3 3 3 6 4 2 2 3 2 1 1
3 3 3 3 3 3 3 3 3 3 3 3 3 4 4 4 4 5 4 6 4 4 4 3 3 4 3 2 3 2 3 7 6 3 2 3 2 2
4 4 3 2 2 3 3 3 4 3 4 4 4 4 4 4 5 6 5 5 4 4 4 4 4 3 2 2 3 2 2 3 6 8 8 7 3 2
3 3 3 3 4 3 4 5 5 4 5 5 6 5 6 5 5 5 5 5 4 4 5 5 4 4 3 3 3 2 3 4 2 3 5 11 15 14
Wind_Direction
52 46 47 46 36 29 30 32 28 60 109 124 103 91 32 55 167 293 237 216 221 228 253 280 305 321 330 335 339 342 341 341 341 342 341 339 337 334
65 50 38 26 27 27 25 28 29 30 59 79 81 84 48 349 204 306 287 242 229 220 233 251 269 295 316 330 336 337 340 340 338 337 335 332 328 328
66 67 61 42 24 22 19 35 37 31 30 36 61 110 117 297 314 297 285 243 194 204 219 234 245 262 286 308 320 332 336 336 337 338 337 334 331 328
62 56 48 47 39 28 12 31 37 30 25 10 349 350 291 274 294 288 308 353 255 206 212 223 232 246 261 281 295 307 321 329 332 334 336 336 334 332
60 57 53 44 33 19 17 19 9 15 356 333 319 306 301 350 323 314 330 319 316 187 206 220 227 235 244 248 265 284 303 317 324 329 333 334 334 334
68 65 61 51 34 1 17 20 6 348 334 325 331 349 7 359 353 340 345 341 331 343 334 199 204 214 226 233 244 260 290 305 314 321 327 331 333 334
71 77 87 84 60 5 16 2 358 351 350 356 356 16 15 3 358 338 342 327 326 356 338 322 188 193 206 221 229 241 263 287 307 321 325 328 330 330
48 48 116 112 67 308 303 305 306 329 353 347 358 2 0 359 347 338 344 343 331 334 336 318 332 222 209 181 202 212 234 269 300 315 323 327 328 326
40 22 41 59 35 10 341 296 268 248 242 297 327 334 339 359 347 336 336 327 301 295 313 308 313 307 240 150 187 202 222 254 282 301 314 323 324 323
67 49 52 58 31 6 338 339 332 275 229 229 281 309 330 340 328 311 305 307 297 296 316 305 315 317 341 152 194 205 217 237 261 284 304 319 323 320
77 58 45 59 26 5 348 354 6 5 346 306 282 282 287 287 282 307 316 333 329 324 344 338 326 322 307 185 198 212 225 237 249 265 289 309 320 321
98 95 64 42 16 8 355 353 358 346 334 324 302 277 265 263 249 229 270 312 322 324 339 350 336 338 323 291 232 200 227 242 243 250 266 286 318 331
66 83 64 12 358 347 333 319 325 311 302 300 305 305 293 276 230 221 229 256 300 303 312 347 328 328 305 298 286 235 211 209 208 231 242 257 278 313
31 43 31 327 325 317 310 307 316 314 294 314 334 333 334 341 316 297 274 262 245 247 258 264 274 294 308 312 300 295 266 216 203 206 205 213 235 245
349 324 300 291 298 289 264 286 304 311 334 341 333 322 315 309 298 297 298 287 278 270 254 226 234 270 289 284 294 308 309 291 254 241 195 189 202 203
330 300 279 273 269 276 288 274 257 298 332 317 318 317 319 325 321 317 319 316 311 304 286 266 241 243 269 280 289 309 312 300 304 294 249 242 208 180
331 305 289 304 334 348 337 338 346 2 356 339 332 331 335 336 327 323 316 319 330 324 317 304 285 260 267 269 303 311 310 311 297 281 273 258 234 185
331 316 350 10 4 356 349 355 12 21 357 337 336 341 338 332 328 327 330 339 329 316 313 308 316 334 328 334 297 307 320 316 305 293 286 281 260 200
303 314 19 17 1 355 357 2 4 359 341 332 341 341 336 331 329 331 332 335 328 316 306 307 330 356 342 328 285 236 257 293 309 318 312 297 270 217
273 12 25 17 12 0 356 357 352 344 347 339 338 338 333 328 327 328 323 328 318 305 303 310 326 321 294 285 278 263 224 237 267 291 301 303 338 65
31 27 27 19 10 356 348 348 347 338 343 332 335 342 334 328 328 326 322 324 317 310 318 309 284 271 255 265 280 271 231 224 229 229 270 295 294 256
31 12 4 11 23 359 353 358 354 348 352 355 355 347 334 328 326 323 322 322 321 326 324 312 306 297 284 287 292 289 279 255 236 236 243 236 235 255
42 357 343 23 34 10 8 357 353 3 14 7 352 339 329 323 316 315 320 323 330 337 335 326 322 319 315 307 306 311 321 308 257 223 246 238 237 248